This is the latest recevied weather packets stored in our database for station/object K1JO. If no packets are shown the sender has not sent any weather packets the latest 10 day(s).
| Time | Temp. | Humidity | Pressure | Rain* | Wind** | Luminosity | Snow |
|---|---|---|---|---|---|---|---|
| 1777930702 | 16.11° C | 58% | 1001.2 hPa | 0 mm | - | 151 W/m² | - |
| 1777930398 | 16.11° C | 58% | 1001.3 hPa | 0 mm | - | 128 W/m² | - |
| 1777930095 | 15.56° C | 60% | 1001.3 hPa | 0 mm | - | 107 W/m² | - |
| 1777929791 | 15.56° C | 59% | 1001.4 hPa | 0 mm | - | 92 W/m² | - |
| 1777929489 | 15.56° C | 60% | 1001.4 hPa | 0 mm | - | 115 W/m² | - |
| 1777929185 | 16.11° C | 58% | 1001.2 hPa | 0 mm | - | 106 W/m² | - |
| 1777928882 | 16.67° C | 59% | 1001.3 hPa | 0 mm | - | 293 W/m² | - |
| 1777928580 | 16.67° C | 57% | 1001.2 hPa | 0 mm | - | 283 W/m² | - |
| 1777928277 | 16.11° C | 60% | 1001.1 hPa | 0 mm | - | 327 W/m² | - |
| 1777927974 | 16.67° C | 59% | 1001 hPa | 0 mm | - | 115 W/m² | - |
| 1777927672 | 16.67° C | 56% | 1001 hPa | 0 mm | - | 330 W/m² | - |
| 1777927370 | 16.11° C | 60% | 1000.9 hPa | 0 mm | - | 172 W/m² | - |
| 1777927069 | 17.22° C | 59% | 1001 hPa | 0 mm | - | 96 W/m² | - |
| 1777926766 | 16.67° C | 64% | 1001 hPa | 0 mm | - | 408 W/m² | - |
| 1777926461 | 16.11° C | 60% | 1000.8 hPa | 0 mm | - | 129 W/m² | - |
| 1777926159 | 15.56° C | 65% | 1001.1 hPa | 0 mm | - | 158 W/m² | - |
| 1777925856 | 15.56° C | 65% | 1001 hPa | 0 mm | - | 141 W/m² | - |
| 1777925553 | 15.56° C | 66% | 1000.8 hPa | 0 mm | - | 271 W/m² | - |
| 1777925251 | 15.56° C | 66% | 1000.9 hPa | 0 mm | - | 105 W/m² | - |
| 1777924946 | 15.56° C | 63% | 1000.6 hPa | 0 mm | - | 143 W/m² | - |
| 1777924643 | 15.56° C | 61% | 1000.6 hPa | 0 mm | - | 202 W/m² | - |
| 1777924339 | 15.56° C | 65% | 1000.7 hPa | 0 mm | - | 483 W/m² | - |
| 1777924036 | 15.56° C | 63% | 1000.7 hPa | 0 mm | - | 142 W/m² | - |
| 1777923732 | 16.11° C | 63% | 1000.7 hPa | 0 mm | - | 130 W/m² | - |
| 1777923429 | 16.67° C | 62% | 1000.8 hPa | 0 mm | - | 649 W/m² | - |
* Rain latest hour (hover to see other rain measurements)
** Current wind speed in m/s (hover to see current wind gust speed)